FW4613 Weather Reports


time (UTC)temp
C
wind
direction
speed
KPH
gust
KPH
rain 1hr
cm
rain 24hr
cm
rain mn
cm
humidity
%
barometer
mb
20260503224533 15 49 4.8 19.3 0.00 0.00 0.00 36 1013.5
20260503224011 15 48 0.0 25.7 0.00 0.00 0.00 36 1013.5
20260503223533 15 14 6.4 25.7 0.00 0.00 0.00 35 1013.5
20260503223055 16 63 4.8 19.3 0.00 0.00 0.00 35 1013.5
20260503222537 16 141 6.4 19.3 0.00 0.00 0.00 36 1013.5
20260503222055 16 46 8.0 20.9 0.00 0.00 0.00 35 1013.5
20260503221515 16 34 9.7 20.9 0.00 0.00 0.00 35 1013.4
20260503221053 16 64 6.4 16.1 0.00 0.00 0.00 35 1013.4
20260503220511 16 25 1.6 20.9 0.00 0.00 0.00 35 1013.4
20260503220032 16 53 3.2 20.9 0.00 0.00 0.00 35 1013.5
20260503215510 16 16 4.8 25.7 0.00 0.00 0.00 34 1013.3
20260503215031 16 44 3.2 25.7 0.00 0.00 0.00 34 1013.4
20260503214548 16 54 12.9 24.1 0.00 0.00 0.00 34 1013.4
20260503214013 16 56 3.2 27.4 0.00 0.00 0.00 34 1013.2
20260503213547 16 35 4.8 27.4 0.00 0.00 0.00 33 1013.3
20260503213007 16 41 6.4 22.5 0.00 0.00 0.00 33 1013.3
20260503212527 16 123 4.8 14.5 0.00 0.00 0.00 33 1013.2
20260503212004 16 112 1.6 20.9 0.00 0.00 0.00 34 1013.1
20260503211524 16 87 4.8 24.1 0.00 0.00 0.00 34 1013.2
20260503211100 16 18 9.7 24.1 0.00 0.00 0.00 34 1013.3
20260503211002 16 74 12.9 24.1 0.00 0.00 0.00 33 1013.2
20260503210529 16 56 3.2 19.3 0.00 0.00 0.00 35 1013.2
20260503210050 15 12 9.7 20.9 0.00 0.00 0.00 33 1013.2
20260503205527 16 356 11.3 25.7 0.00 0.00 0.00 33 1013.3
20260503205011 16 143 9.7 25.7 0.00 0.00 0.00 34 1013.4
20260503204538 16 14 3.2 17.7 0.00 0.00 0.00 34 1013.4
20260503204053 16 321 4.8 17.7 0.00 0.00 0.00 35 1013.4
20260503203515 15 11 3.2 17.7 0.00 0.00 0.00 35 1013.4
20260503203052 16 228 6.4 17.7 0.00 0.00 0.00 34 1013.6
20260503202515 16 131 3.2 9.7 0.00 0.00 0.00 37 1013.4
20260503202056 15 92 3.2 14.5 0.00 0.00 0.00 37 1013.5
20260503201513 15 346 6.4 14.5 0.00 0.00 0.00 36 1013.5
20260503201039 15 4 3.2 12.9 0.00 0.00 0.00 36 1013.6
20260503200553 15 81 4.8 12.9 0.00 0.00 0.00 36 1013.6
20260503200014 15 88 4.8 29.0 0.00 0.00 0.00 37 1013.7
20260503195535 15 15 9.7 32.2 0.00 0.00 0.00 35 1013.9
20260503195015 15 58 12.9 32.2 0.00 0.00 0.00 36 1013.8
20260503194537 15 193 4.8 20.9 0.00 0.00 0.00 36 1013.9
20260503194016 15 49 3.2 25.7 0.00 0.00 0.00 36 1013.9
20260503193537 15 37 8.0 30.6 0.00 0.00 0.00 37 1014.2
20260503193102 15 146 16.1 30.6 0.00 0.00 0.00 36 1014.1
20260503192541 15 65 4.8 22.5 0.00 0.00 0.00 36 1014.2
20260503192020 15 25 8.0 20.9 0.00 0.00 0.00 35 1014.3
20260503191548 15 29 4.8 17.7 0.00 0.00 0.00 39 1014.2
20260503191015 15 59 3.2 14.5 0.00 0.00 0.00 36 1014.2
20260503190536 15 30 3.2 12.9 0.00 0.00 0.00 38 1014.3
20260503190020 15 139 3.2 17.7 0.00 0.00 0.00 37 1014.3
20260503185548 14 26 4.8 17.7 0.00 0.00 0.00 40 1014.4
20260503185015 13 32 3.2 27.4 0.00 0.00 0.00 37 1014.4
20260503184558 14 150 4.8 22.5 0.00 0.00 0.00 37 1014.3
20260503184011 13 58 11.3 20.9 0.00 0.00 0.00 36 1014.4
20260503183544 14 60 4.8 19.3 0.00 0.00 0.00 38 1014.5
20260503183009 14 60 8.0 27.4 0.00 0.00 0.00 36 1014.6
20260503182546 13 140 9.7 27.4 0.00 0.00 0.00 38 1014.6
20260503182012 13 83 9.7 22.5 0.00 0.00 0.00 37 1014.6
20260503181607 13 112 8.0 17.7 0.00 0.00 0.00 38 1014.7
20260503181013 13 62 8.0 17.7 0.00 0.00 0.00 38 1014.6
20260503180553 13 331 6.4 19.3 0.00 0.00 0.00 38 1014.7
20260503180035 13 156 6.4 22.5 0.00 0.00 0.00 37 1014.7
20260503175557 13 38 4.8 16.1 0.00 0.00 0.00 38 1014.6
20260503175024 13 108 4.8 24.1 0.00 0.00 0.00 41 1014.5
20260503174503 13 134 3.2 19.3 0.00 0.00 0.00 38 1014.6
20260503174043 13 152 4.8 24.1 0.00 0.00 0.00 39 1014.8
20260503173525 13 36 6.4 27.4 0.00 0.00 0.00 39 1014.8
20260503173013 13 37 8.0 27.4 0.00 0.00 0.00 38 1014.8
20260503172535 13 331 4.8 22.5 0.00 0.00 0.00 40 1014.8
20260503172024 12 75 11.3 22.5 0.00 0.00 0.00 38 1014.8
20260503171556 12 218 4.8 16.1 0.00 0.00 0.00 40 1014.8
20260503171039 13 15 3.2 14.5 0.00 0.00 0.00 40 1014.9
20260503170521 13 4 4.8 14.5 0.00 0.00 0.00 38 1014.8
20260503150544 10 113 3.2 12.9 0.00 0.00 0.00 49 1015.7
20260503131005 8 155 3.2 14.5 0.00 0.00 0.00 58 1015.4
20260503130546 8 146 4.8 14.5 0.00 0.00 0.00 57 1015.5
20260503110526 6 68 0.0 1.6 0.00 0.00 0.00 65 1014.8
20260503081531 5 25 0.0 4.8 0.00 0.00 0.00 70 1012.6
20260503081042 5 96 0.0 3.2 0.00 0.00 0.00 71 1012.7
20260503080516 5 98 0.0 1.6 0.00 0.00 0.00 71 1012.6
20260503072547 5 86 0.0 1.6 0.00 0.00 0.00 71 1012.4
20260503072021 6 112 0.0 1.6 0.00 0.00 0.00 71 1012.4
20260503071546 6 60 0.0 1.6 0.00 0.00 0.00 70 1012.4
20260503071003 6 60 0.0 1.6 0.00 0.00 0.00 70 1012.4
20260503070523 6 58 0.0 1.6 0.00 0.00 0.00 70 1012.4
20260503070105 6 58 0.0 3.2 0.00 0.00 0.00 70 1012.4
20260503055003 6 56 0.0 0.0 0.00 0.00 0.00 72 1013.0
20260503054539 6 55 0.0 0.0 0.00 0.00 0.00 72 1013.0
20260503054011 6 55 0.0 0.0 0.00 0.00 0.00 73 1013.0
20260503053548 6 55 0.0 0.0 0.00 0.00 0.00 73 1013.0
20260503053028 6 55 0.0 0.0 0.00 0.00 0.00 73 1013.1
20260503052552 6 55 0.0 0.0 0.00 0.00 0.00 73 1013.1
20260503052036 6 55 0.0 0.0 0.00 0.00 0.00 72 1013.2
20260503051557 7 55 0.0 0.0 0.00 0.00 0.00 70 1013.2
20260503051022 7 55 0.0 0.0 0.00 0.00 0.00 69 1013.3
20260503050554 7 55 0.0 0.0 0.00 0.00 0.00 69 1013.3
20260503050036 7 55 0.0 0.0 0.00 0.00 0.00 68 1013.4
20260503045516 7 55 0.0 0.0 0.00 0.00 0.00 66 1013.3
20260503045045 7 55 0.0 0.0 0.00 0.00 0.00 65 1013.4
20260503044526 8 55 0.0 0.0 0.00 0.00 0.00 65 1013.4
20260503044057 8 56 0.0 0.0 0.00 0.00 0.00 65 1013.4
20260503043521 8 56 0.0 0.0 0.00 0.00 0.00 64 1013.4
20260503043100 8 55 0.0 4.8 0.00 0.00 0.00 63 1013.3
20260503042525 8 56 0.0 4.8 0.00 0.00 0.00 62 1013.4
20260503042058 8 68 0.0 4.8 0.00 0.00 0.00 62 1013.4
20260503041522 8 65 0.0 4.8 0.00 0.00 0.00 62 1013.4
20260503041059 8 67 0.0 4.8 0.00 0.00 0.00 61 1013.5
20260503040521 8 55 0.0 4.8 0.00 0.00 0.00 61 1013.5
20260503040104 8 75 0.0 6.4 0.00 0.00 0.00 61 1013.6
20260503035535 9 321 0.0 6.4 0.00 0.00 0.00 60 1013.7
20260503035011 9 271 1.6 9.7 0.00 0.00 0.00 60 1013.6
20260503034543 9 113 1.6 9.7 0.00 0.00 0.00 60 1013.6
20260503034034 9 10 3.2 9.7 0.00 0.00 0.00 60 1013.7
20260503033556 9 91 0.0 11.3 0.00 0.00 0.00 60 1013.6
20260503033029 9 55 3.2 11.3 0.00 0.00 0.00 59 1013.6
20260503032551 8 60 3.2 11.3 0.00 0.00 0.00 59 1013.6
20260503032037 8 34 1.6 9.7 0.00 0.00 0.00 59 1013.6
20260503031511 9 27 3.2 12.9 0.00 0.00 0.00 59 1013.5
20260503031046 9 33 1.6 12.9 0.00 0.00 0.00 58 1013.6
20260503030510 9 79 1.6 9.7 0.00 0.00 0.00 58 1013.6
20260503030104 9 76 1.6 9.7 0.00 0.00 0.00 58 1013.6
20260503025525 8 86 0.0 3.2 0.00 0.00 0.00 58 1013.6
20260503025003 9 73 0.0 8.0 0.00 0.00 0.00 58 1013.5
20260503024542 9 68 1.6 4.8 0.00 0.00 0.00 57 1013.6
20260503024022 9 60 0.0 8.0 0.00 0.00 0.00 57 1013.7
20260503023600 9 39 1.6 8.0 0.00 0.00 0.00 57 1013.7
20260503023039 8 65 0.0 4.8 0.00 0.00 0.00 57 1013.6
20260503022515 9 11 0.0 3.2 0.00 0.00 0.00 57 1013.7
20260503022049 9 49 0.0 4.8 0.00 0.00 0.00 57 1013.7
20260503021531 9 15 0.0 4.8 0.00 0.00 0.00 57 1013.8
20260503021007 9 75 0.0 4.8 0.00 0.00 0.00 56 1013.8
20260503020542 9 70 0.0 4.8 0.00 0.00 0.00 56 1013.8
20260503020023 9 60 0.0 3.2 0.00 0.00 0.00 56 1013.7
20260503015546 9 40 0.0 3.2 0.00 0.00 0.00 56 1013.8
20260503015026 9 17 0.0 1.6 0.00 0.00 0.00 55 1013.7
20260503014606 9 58 0.0 1.6 0.00 0.00 0.00 55 1013.7
20260503014502 10 59 0.0 3.2 0.00 0.00 0.00 55 1013.7
20260503014041 10 68 0.0 3.2 0.00 0.00 0.00 54 1013.8
20260503013518 10 58 0.0 1.6 0.00 0.00 0.00 54 1013.7
20260503013055 10 53 0.0 1.6 0.00 0.00 0.00 54 1013.7
20260503012532 10 54 0.0 1.6 0.00 0.00 0.00 53 1013.5
20260503012015 10 51 0.0 1.6 0.00 0.00 0.00 52 1013.5
20260503011554 10 49 0.0 3.2 0.00 0.00 0.00 52 1013.5
20260503011029 10 53 0.0 3.2 0.00 0.00 0.00 52 1013.4
20260503010512 11 65 0.0 1.6 0.00 0.00 0.00 52 1013.5
20260503010048 11 60 0.0 4.8 0.00 0.00 0.00 52 1013.5
20260503005528 11 60 0.0 4.8 0.00 0.00 0.00 51 1013.3
20260503005003 11 27 0.0 4.8 0.00 0.00 0.00 51 1013.3
20260503004540 11 108 0.0 3.2 0.00 0.00 0.00 51 1013.3
20260503004021 11 70 0.0 1.6 0.00 0.00 0.00 51 1013.2
20260503003559 11 69 0.0 1.6 0.00 0.00 0.00 50 1013.2
20260503003501 11 69 0.0 1.6 0.00 0.00 0.00 51 1013.1
20260503003046 11 70 0.0 1.6 0.00 0.00 0.00 50 1013.1
20260503002519 11 70 0.0 4.8 0.00 0.00 0.00 50 1013.1
20260503002053 11 91 0.0 4.8 0.00 0.00 0.00 50 1013.1
20260503001535 11 56 0.0 3.2 0.00 0.00 0.00 49 1013.0
20260503001013 11 77 0.0 6.4 0.00 0.00 0.00 49 1012.9
20260503000547 11 70 0.0 6.4 0.00 0.00 0.00 48 1012.9
20260503000033 11 58 0.0 3.2 0.00 0.00 0.00 48 1012.9
20260502235507 12 54 0.0 3.2 0.00 0.00 0.00 47 1012.9
20260502235043 12 131 0.0 3.2 0.00 0.00 0.00 47 1012.8
20260502234528 12 36 0.0 4.8 0.00 0.00 0.00 46 1012.8
20260502234008 12 69 0.0 4.8 0.00 0.00 0.00 46 1012.7
20260502233547 12 82 0.0 3.2 0.00 0.00 0.00 46 1012.7
20260502233028 12 103 0.0 6.4 0.00 0.00 0.00 45 1012.7
20260502232503 12 86 0.0 6.4 0.00 0.00 0.00 45 1012.6
20260502232044 12 48 0.0 4.8 0.00 0.00 0.00 44 1012.6
20260502231521 12 102 0.0 3.2 0.00 0.00 0.00 44 1012.6
20260502231057 13 91 0.0 3.2 0.00 0.00 0.00 43 1012.6
20260502230536 13 65 0.0 6.4 0.00 0.00 0.00 43 1012.6
20260502230018 13 15 1.6 9.7 0.00 0.00 0.00 42 1012.6
20260502225553 13 140 0.0 9.7 0.00 0.00 0.00 42 1012.6
20260502225029 13 149 0.0 8.0 0.00 0.00 0.00 42 1012.7